Date,TemperatureHighF,TemperatureAvgF,TemperatureLowF,DewpointHighF,DewpointAvgF,DewpointLowF,HumidityHigh,HumidityAvg,HumidityLow,PressureMaxIn,PressureMinIn,WindSpeedMaxMPH,WindSpeedAvgMPH,GustSpeedMaxMPH,PrecipitationSumIn
2013-4-1,41,38,34,37,30,-100,93,76,64,30.27,30.18,23,12,28,0.00
2013-4-2,43,38,34,34,30,28,93,75,56,30.28,30.20,14,7,20,0.00
2013-4-3,39,38,34,37,34,30,100,84,69,30.32,30.22,10,6,0,0.00
2013-4-4,59,46,37,43,39,36,100,77,51,30.24,30.10,9,4,0,0.00
2013-4-5,68,52,36,48,42,36,100,71,42,30.15,29.79,28,14,35,0.00
2013-4-6,75,62,52,48,46,41,81,57,31,29.87,29.69,21,11,28,0.00
2013-4-7,72,61,52,63,53,43,100,76,51,29.87,29.64,18,9,25,0.00
2013-4-8,73,66,59,64,61,57,100,83,64,29.68,29.55,20,12,28,0.00
2013-4-9,70,55,32,64,51,30,100,88,77,30.00,29.53,29,18,37,0.00
2013-4-10,34,30,28,30,28,27,100,90,80,30.04,29.54,17,8,22,0.00
2013-4-11,57,39,27,36,29,25,93,72,33,29.97,29.70,16,8,23,0.00
2013-4-12,59,44,30,41,33,27,92,67,38,30.03,29.85,12,6,16,0.00
2013-4-13,73,55,36,52,43,34,100,67,40,30.04,29.57,24,12,35,0.00
2013-4-14,72,63,55,54,44,28,72,52,25,29.74,29.44,29,16,37,0.00
2013-4-15,57,52,46,37,34,28,66,49,35,29.93,29.72,21,12,28,0.00
2013-4-16,48,44,41,41,35,30,93,69,52,30.07,29.90,23,16,30,0.00
2013-4-17,45,43,39,45,42,37,100,98,93,29.99,29.70,25,12,35,0.00
2013-4-18,39,37,30,37,30,25,100,78,60,30.09,29.72,27,19,35,0.00
2013-4-19,64,45,28,39,30,25,86,60,29,30.12,30.00,24,12,33,0.00
2013-4-20,63,50,37,43,37,32,86,61,36,30.08,29.96,21,11,28,0.00
2013-4-21,70,59,46,46,41,36,75,51,37,30.13,30.03,25,13,33,0.00
2013-4-22,73,56,36,57,47,36,100,71,53,30.07,29.81,32,14,44,0.00
2013-4-23,36,34,32,36,30,27,100,85,74,30.27,30.03,27,13,36,0.00
2013-4-24,61,43,27,36,30,25,100,65,29,30.30,30.19,12,6,16,0.00
2013-4-25,70,55,37,41,36,30,86,52,25,30.29,30.00,27,13,33,0.00
2013-4-26,61,53,50,52,47,36,100,82,38,30.15,30.03,20,10,29,0.00
2013-4-27,68,57,50,54,52,48,100,84,56,30.15,30.00,13,6,0,0.00
2013-4-28,82,64,48,57,52,48,100,71,30,30.01,29.76,17,11,23,0.00
2013-4-29,88,74,63,61,56,52,93,58,31,29.79,29.58,22,14,31,0.00
2013-4-30,84,74,63,64,58,50,82,59,44,29.75,29.64,25,18,33,0.00